Winner, SD

6:14 PM CDT on April 25, 2018 (GMT -0500)
Winner

Weather History for KICR - March, 2013

Change the Weather History Date:

Thursday, March 7, 2013

  Actual Average Record
Temperature  
Mean Temperature 44 °F 33 °F  
Max Temperature 60 °F 44 °F 75 °F (2016)
Min Temperature 27 °F 23 °F 6 °F (2011)
Degree Days  
Heating Degree Days 21 32  
Month to date heating degree days 222 229  
Since 1 July heating degree days 4885 5238  
Cooling Degree Days 0 0  
Month to date cooling degree days 0 0  
Year to date cooling degree days 0 0  
Moisture  
Dew Point 25 °F    
Average Humidity 57    
Maximum Humidity 81    
Minimum Humidity 32    
Precipitation  
Precipitation 0.00 in 0.03 in 0.00 in (2018)
Month to date precipitation T 0.12  
Year to date precipitation T 0.88  
Sea Level Pressure  
Sea Level Pressure 30.03 in    
Wind  
Wind Speed 14 mph (South)    
Max Wind Speed 30 mph    
Max Gust Speed 38 mph    
Visibility 10 miles    
Events      
T = Trace of Precipitation, MM = Missing Value Source: NWS Daily Summary

Daily Weather History Graph

Daily Weather History Graph

Search for Another Location

Airport or City:

Astronomy

Mar. 07, 2013 Rise Set
Actual Time 7:04 AM CST 6:36 PM CST
Civil Twilight 6:36 AM CST 7:04 PM CST
Nautical Twilight 6:03 AM CST 7:37 PM CST
Astronomical Twilight 5:30 AM CST 8:11 PM CST
Moon 4:12 AM CST (3/7) 2:20 PM CST (3/7)
Length of Visible Light 12h 28m
Length of Day
11h 31m
Waning Crescent, 20% of the Moon is Illuminated
Mar 7
Waning Crescent
Mar 11
New
Mar 19
First Quarter
Mar 27
Full
Apr 2
Last Quarter

Hourly Weather History & Observations

Time (CST) Temp. Windchill Dew Point Humidity Pressure Visibility Wind Dir Wind Speed Gust Speed Precip Events Conditions
12:53 AM 27.0 °F 13.9 °F 19.9 °F 75% 30.06 in 10.0 mi SE 18.4 mph - N/A   Clear
1:53 AM 27.0 °F 13.5 °F 19.9 °F 75% 30.05 in 10.0 mi SE 19.6 mph - N/A   Clear
2:53 AM 28.0 °F 15.3 °F 19.9 °F 72% 30.03 in 10.0 mi SE 18.4 mph - N/A   Clear
3:53 AM 27.0 °F 12.8 °F 19.9 °F 75% 29.99 in 10.0 mi SE 21.9 mph 29.9 mph N/A   Clear
4:53 AM 28.0 °F 14.9 °F 21.0 °F 75% 29.99 in 10.0 mi SSE 19.6 mph 26.5 mph N/A   Clear
5:53 AM 27.0 °F 13.2 °F 21.0 °F 78% 29.99 in 10.0 mi SSE 20.7 mph 31.1 mph N/A   Clear
6:53 AM 27.0 °F 15.6 °F 21.0 °F 78% 30.02 in 10.0 mi SSE 13.8 mph 23.0 mph N/A   Clear
7:53 AM 28.0 °F 15.7 °F 21.9 °F 78% 30.03 in 10.0 mi South 17.3 mph 25.3 mph N/A   Clear
8:53 AM 32.0 °F 19.2 °F 23.0 °F 69% 30.01 in 10.0 mi South 23.0 mph 31.1 mph N/A   Clear
9:53 AM 36.0 °F 24.7 °F 24.1 °F 62% 30.00 in 10.0 mi South 21.9 mph 33.4 mph N/A   Clear
10:53 AM 39.9 °F 30.0 °F 25.0 °F 55% 29.99 in 10.0 mi South 21.9 mph 27.6 mph N/A   Clear
11:53 AM 46.0 °F 38.8 °F 27.0 °F 47% 29.98 in 10.0 mi South 18.4 mph 25.3 mph N/A   Clear
12:53 PM 50.0 °F - 28.0 °F 43% 29.99 in 10.0 mi South 16.1 mph - N/A   Clear
1:53 PM 54.0 °F - 28.9 °F 38% 29.96 in 10.0 mi South 12.7 mph - N/A   Clear
2:53 PM 55.0 °F - 28.9 °F 37% 29.96 in 10.0 mi South 13.8 mph - N/A   Clear
3:53 PM 57.9 °F - 28.9 °F 33% 29.97 in 10.0 mi South 9.2 mph - N/A   Clear
4:53 PM 60.1 °F - 30.0 °F 32% 29.98 in 10.0 mi South 4.6 mph - N/A   Clear
5:53 PM 53.1 °F - 28.9 °F 40% 30.01 in 10.0 mi NNW 9.2 mph - N/A   Clear
6:53 PM 46.9 °F - 28.0 °F 48% 30.04 in 10.0 mi NNW 8.1 mph - N/A   Clear
7:53 PM 41.0 °F 36.4 °F 28.0 °F 60% 30.08 in 10.0 mi NW 6.9 mph - N/A   Clear
8:53 PM 37.9 °F 32.1 °F 28.0 °F 68% 30.10 in 10.0 mi West 8.1 mph - N/A   Clear
9:53 PM 35.1 °F 29.3 °F 26.1 °F 70% 30.12 in 10.0 mi WNW 6.9 mph - N/A   Clear
10:53 PM 32.0 °F 24.8 °F 26.1 °F 79% 30.14 in 10.0 mi West 8.1 mph - N/A   Clear
11:53 PM 30.0 °F 23.2 °F 25.0 °F 82% 30.14 in 10.0 mi WNW 6.9 mph - N/A   Clear